www.pogodaiklimat.ru

Погода и климат >> Архив погоды >> Австралия >> Квинсленд >> Остров Лоу


ПОГОДА на Острове Лоу

  • Прогноз погоды на Острове Лоу
  • Монитор погоды на Острове Лоу

АРХИВ ПОГОДЫ на Острове Лоу

Время (UTC), дата Ветер
(напр.,м/с)
 
Видим.   Явления Облачность Т
(С)
Тd
(С)
f
(%)
Тe
(С)
Тes
(С)
Комфортность P
(гПа)
Po
(гПа)
Тmin
(С)
Tmax
(С)
R
(мм)
R24
(мм)
S
(см)
17 11.04 ЮВ 7 н/о н/о +26.0 +21.7 77 +33 +33 очень
душно
1012.4 1012.0
20 11.04 ЮВ 6 н/о н/о +25.9 +21.1 75 +33 +33 очень
душно
1012.6 1012.2
23 11.04 ЮВ 8 н/о н/о +26.3 +21.9 77 +34 +34 очень
душно
1014.4 1014.0
02 12.04 ЮВ 9 н/о н/о +27.6 +22.1 72 +36 +36 очень
душно
1013.4 1013.0 +25.8
05 12.04 ЮВ 10 н/о н/о +27.9 +22.6 73 +37 +37 очень
душно
1012.1 1011.7
08 12.04 ЮВ 12 н/о н/о +26.6 +22.2 77 +35 +35 очень
душно
1012.8 1012.4
11 12.04 ЮВ 8 н/о н/о +26.4 +22.0 77 +34 +34 очень
душно
1014.7 1014.3
14 12.04 ЮВ 8 н/о н/о +26.3 +21.5 75 +34 +34 очень
душно
1014.6 1014.2 +29.8
17 12.04 Ю 7 н/о н/о +26.1 +21.7 77 +34 +34 очень
душно
1012.9 1012.5
20 12.04 ЮВ 8 н/о н/о +26.0 +21.2 75 +33 +33 очень
душно
1013.7 1013.3
23 12.04 ЮВ 7 н/о н/о +26.2 +20.8 72 +33 +33 очень
душно
1015.0 1014.6
02 13.04 ЮВ 11 н/о н/о +27.5 +21.8 71 +35 +35 очень
душно
1013.6 1013.2 +24.7
05 13.04 ЮВ 12 н/о н/о +27.2 +21.2 70 +34 +34 очень
душно
1012.0 1011.6
08 13.04 ЮВ 13 н/о н/о +24.9 +21.2 80 +31 +31 очень
душно
1013.3 1012.9
11 13.04 Ю 9 н/о в посл. час дождь {туман} н/о +25.5 +22.0 81 +33 +33 очень
душно
1014.1 1013.7
14 13.04 ЮВ 11 н/о в посл. час дождь {туман} н/о +24.2 +21.9 87 +31 +31 очень
душно
1014.0 1013.6 +28.6
17 13.04 ЮВ 12 н/о в посл. час дождь {туман} н/о +25.4 +21.9 81 +33 +33 очень
душно
1011.9 1011.5
20 13.04 ЮВ 8 н/о н/о +26.1 +22.0 78 +34 +34 очень
душно
1012.9 1012.5
23 13.04 ЮВ 10 н/о {туман} н/о +26.6 +21.4 73 +34 +34 очень
душно
1014.8 1014.4
02 14.04 ЮВ 7 н/о н/о +26.8 +22.4 77 +35 +35 очень
душно
1014.1 1013.7 +23.2
05 14.04 ЮВ 8 н/о н/о +26.4 +22.7 80 +35 +35 очень
душно
1012.3 1011.9
08 14.04 ЮВ 11 н/о н/о +25.5 +22.2 82 +33 +33 очень
душно
1013.0 1012.6
11 14.04 Ю 8 н/о {туман} н/о +26.0 +21.7 77 +33 +33 очень
душно
1014.4 1014.0
14 14.04 ЮВ 8 н/о н/о +25.3 +22.2 83 +33 +33 очень
душно
1013.4 1013.0 +27.9
17 14.04 ЮВ 8 н/о в посл. час дождь {туман} н/о +25.2 +21.5 80 +32 +32 очень
душно
1012.2 1011.8
20 14.04 ЮВ 7 н/о {туман} н/о +25.3 +21.2 78 +32 +32 очень
душно
1013.3 1012.9
23 14.04 ЮВ 9 н/о {туман} н/о +25.7 +21.1 76 +32 +32 очень
душно
1015.5 1015.1
02 15.04 ЮВ 7 н/о н/о +27.8 +22.3 72 +36 +36 очень
душно
1014.3 1013.9 +23.7
05 15.04 ЮВ 9 н/о н/о +27.4 +21.7 71 +35 +35 очень
душно
1012.3 1011.9
08 15.04 ЮВ 8 н/о н/о +26.4 +21.8 76 +34 +34 очень
душно
1013.3 1012.9
11 15.04 ЮВ 8 н/о н/о +26.0 +21.7 77 +33 +33 очень
душно
1014.6 1014.2
14 15.04 ЮВ 6 н/о н/о +25.4 +21.1 77 +32 +32 очень
душно
1015.0 1014.6 +28.8
17 15.04 ЮВ 7 н/о н/о +25.3 +21.0 77 +32 +32 очень
душно
1013.5 1013.1
20 15.04 Ю 6 н/о н/о +25.7 +22.0 80 +33 +33 очень
душно
1014.2 1013.8
23 15.04 ЮВ 6 н/о н/о +25.9 +21.8 78 +33 +33 очень
душно
1015.7 1015.3
02 16.04 ЮВ 8 н/о {туман} н/о +27.0 +22.6 77 +36 +36 очень
душно
1014.8 1014.4 +25.2
05 16.04 ЮВ 8 н/о {туман} н/о +27.9 +21.2 67 +35 +35 очень
душно
1012.9 1012.5
08 16.04 В 5 н/о в посл. час дождь {туман} н/о +24.1 +21.2 84 +30 +30 очень
душно
1014.0 1013.6
11 16.04 ЮВ 9 н/о {туман} н/о +25.3 +21.6 80 +32 +32 очень
душно
1015.7 1015.3
14 16.04 ЮВ 9 н/о н/о +24.7 +21.0 80 +31 +31 очень
душно
1015.4 1015.0 +29.2
17 16.04 ЮВ 7 н/о н/о +24.6 +20.1 76 +30 +30 очень
душно
1014.1 1013.7
20 16.04 ЮВ 7 н/о н/о +25.6 +20.6 74 +32 +32 очень
душно
1014.4 1014.0
23 16.04 ЮВ 7 н/о н/о +25.8 +20.6 73 +32 +32 очень
душно
1016.1 1015.7
02 17.04 ЮВ 7 н/о н/о +27.9 +21.2 67 +35 +35 очень
душно
1015.1 1014.7 +23.8
05 17.04 ЮВ 7 н/о н/о +28.3 +21.3 66 +36 +36 очень
душно
1013.5 1013.1
08 17.04 ЮВ 8 н/о н/о +25.3 +21.4 79 +32 +32 очень
душно
1014.1 1013.7
11 17.04 Ю 9 н/о н/о +24.9 +20.6 77 +31 +31 очень
душно
1016.2 1015.8
14 17.04 ЮВ 9 н/о н/о +24.9 +21.0 79 +31 +31 очень
душно
1015.8 1015.4 +29.5
17 17.04 ЮВ 7 н/о н/о +24.7 +20.2 76 +30 +30 очень
душно
1013.9 1013.5
20 17.04 ЮВ 8 н/о н/о +25.3 +21.6 80 +32 +32 очень
душно
1014.6 1014.2
23 17.04 ЮВ 8 н/о н/о +25.4 +20.6 75 +32 +32 очень
душно
1016.2 1015.8
02 18.04 ЮВ 8 н/о н/о +27.9 +22.6 73 +37 +37 очень
душно
1015.3 1014.9 +24.2
05 18.04 ЮВ 8 н/о н/о +27.3 +20.9 68 +34 +34 очень
душно
1013.4 1013.0
08 18.04 ЮВ 10 н/о н/о +26.1 +20.4 71 +32 +32 очень
душно
1014.3 1013.9
11 18.04 ЮВ 10 н/о н/о +25.4 +21.9 81 +33 +33 очень
душно
1016.6 1016.2
14 18.04 ЮВ 9 н/о н/о +25.1 +21.6 81 +32 +32 очень
душно
1016.3 1015.9 +29.0

 

Местоположение метеостанции Остров Лоу (Квинсленд, Австралия): широта -16.38 долгота 145.57 высота над уровнем моря 4 м.

В архиве по умолчанию представлена погода на Острове Лоу за последнюю неделю. Архивные данные за месяц целиком и за предыдущие месяцы, начиная с января 2011 года, Вы можете получить, выбрав интересующий диапазон дат из раскрывающегося списка и нажав кнопку "Ввод!".


*Определитесь, кто Вы:
робот инопланетянин человек

Внимание! Время в таблицах - всемирное. Для получения местного времени необходимо прибавить поправку, которая равна 10 ч.

Смотрите также архив погоды в соседних городах и на ближайших метеорологических станциях:

Погода в Кэрнсе (Квинсленд, Австралия) (59 км)
Погода на Арлингтон рифе (Квинсленд, Австралия) (70 км)
Погода в Марибе (Квинсленд, Австралия) (78 км)
Погода в Куктауне (Квинсленд, Австралия) (112 км)
Погода в Юг Джонстон (Квинсленд, Австралия) (143 км)
Погода на Мысе Флэттери (Квинсленд, Австралия) (159 км)
Погода в Палмервилле (Квинсленд, Австралия) (166 км)
Погода на Бугенвильском рифе (Квинсленд, Австралия) (192 км)
Погода на Холмс Рифе (Квинсленд, Австралия) (244 км)
Погода в Лусинде (Квинсленд, Австралия) (254 км)

Пояснения к столбцам:

Ветер - указаны скорость ветра в м/с - средняя за 10 мин, порывы в срок и между сроками (в фигурных скобках) и направление, откуда дует ветер: С - северный, СВ - северо-восточный, В - восточный, ЮВ - юго-восточный, Ю - южный, ЮЗ - юго-западный, З - западный, СЗ - северо-западный.
Видимость - горизонтальная дальность видимости в метрах или километрах. При видимости от 1 до 10 км при отсутствии осадков обычно наблюдается дымка, при ухудшении видимости до 1 км и менее - туман. В сухую погоду видимость может ухудшаться дымом, пылью или мглою.
Явления - указаны атмосферные явления, наблюдавшиеся в срок или в последний час перед сроком; фигурными скобками обозначены явления, наблюдавшиеся между сроками (за 1-3 часа до срока); квадратными скобками обозначены град или гололедные отложения с указанием их диаметра в мм.
Облачность - указаны через наклонную черту общая и нижняя облачность в баллах и высота нижней границы облаков в метрах; квадратными скобками обозначены формы облаков: Ci - перистые, Cs - перисто-слоистые, Cc - перисто-кучевые, Ac - высококучевые, As - высокослоистые, Sc - слоисто-кучевые, Ns - слоисто-дождевые, Cu - кучевые, Cb - кучево-дождевые. Подробнее классификацию облаков см. в Атласе облаков (PDF).
T - Температура воздуха - температура, измеренная на высоте 2 м над землей.
Td - Температура точки росы - температура, при понижении до которой содержащийся в воздухе водяной пар достигнет насыщения.
f - Относительная влажность воздуха - влажноcть воздуха, измеренная на высоте 2 м над землей.
Te - Эффективная температура - температура, которую ощущает одетый по сезону человек в тени. Характеристика душности погоды. При расчете учитывается влияние влажности воздуха и скорости ветра на теплоощущения человека.
Tes - Эффективная температура на солнце - температура, которую ощущает человек, с поправкой на солнечный нагрев. Характеристика знойности погоды. Зависит от высоты солнца над горизонтом, облачности и скорости ветра. Ночью, в пасмурную погоду, а также при ветре 12 м/с и более поправка равна нулю.
P - Атмосферное давление - приведенное к уровню моря атмосферное давление.
Po - Атмосферное давление - измеренное на уровне метеостанции атмосферное давление.
Tmin - Минимальная температура - минимум температуры воздуха на высоте 2 м над землей.
Tmax - Максимальная температура - максимум температуры воздуха на высоте 2 м над землей.
R - Количество осадков - Количество выпавших осадков за период времени, мм. При наведении курсора мыши на число - период времени, за который выпало указанное количество осадков.
R24 - Количество осадков - Количество выпавших осадков за 24 часа, мм.
S - Снежный покров - Высота снежного покрова, см. При наведении курсора мыши на число - состояние снежного покрова и степень покрытия местности в баллах.